Andover, NJ

6:01 AM EDT on August 18, 2017 (GMT -0400)
Andover

Weather History for K12N - October, 2013

Change the Weather History Date:

Sunday, October 6, 2013

  Actual Average (KFWN) Record (KFWN)
Temperature  
Mean Temperature 66 °F -  
Max Temperature 68 °F 67 °F 84 °F (2007)
Min Temperature 64 °F 40 °F 23 °F (1968)
Cooling Degree Days 1    
Growing Degree Days 16 (Base 50)    
Moisture  
Dew Point 64 °F    
Average Humidity 90    
Maximum Humidity 93    
Minimum Humidity 87    
Precipitation  
Precipitation 0.02 in - - ()
Sea Level Pressure  
Sea Level Pressure 30.05 in    
Wind  
Wind Speed 1 mph (SSE)    
Max Wind Speed 7 mph    
Max Gust Speed -    
Averages and records for this station are not official NWS values.
T = Trace of Precipitation, MM = Missing Value Source: NWS Daily Summary

Daily Weather History Graph

Daily Weather History Graph

Search for Another Location

Airport or City:

Trip Planner

Search our weather history database for the weather conditions in past years. The results will help you decide how hot, cold, wet, or windy it might be!

Date:

Astronomy

Oct. 06, 2013 Rise Set
Actual Time 7:01 AM EDT 6:32 PM EDT
Civil Twilight 6:33 AM EDT 6:59 PM EDT
Nautical Twilight 6:01 AM EDT 7:31 PM EDT
Astronomical Twilight 5:29 AM EDT 8:03 PM EDT
Moon 8:43 AM EDT (10/6) 7:28 PM EDT (10/6)
Length of Visible Light 12h 26m
Length of Day
11h 31m
Waxing Crescent, 3% of the Moon is Illuminated
Oct 6
Waxing Crescent
Oct 11
First Quarter
Oct 18
Full
Oct 26
Last Quarter
Nov 3
New

Hourly Weather History & Observations

Time (EDT) Temp. Dew Point Humidity Pressure Visibility Wind Dir Wind Speed Gust Speed Precip Events Conditions
12:54 AM 64.9 °F 62.1 °F 90% 30.06 in - Calm Calm - N/A   Unknown
1:54 AM 66.0 °F 63.0 °F 90% 30.06 in - Calm Calm - N/A   Unknown
2:54 AM 66.0 °F 63.0 °F 90% 30.04 in - Calm Calm - N/A   Unknown
3:54 AM 66.0 °F 63.0 °F 90% 30.04 in - Calm Calm - N/A   Unknown
4:54 AM 64.9 °F 63.0 °F 93% 30.04 in - Calm Calm - N/A   Unknown
5:54 AM 64.9 °F 63.0 °F 93% 30.05 in - Calm Calm - N/A   Unknown
6:54 AM 64.9 °F 63.0 °F 93% 30.06 in - Calm Calm - N/A   Unknown
7:54 AM 64.9 °F 63.0 °F 93% 30.06 in - Calm Calm - N/A   Unknown
8:54 AM 66.0 °F 63.0 °F 90% 30.08 in - Calm Calm - N/A   Unknown
9:54 AM 66.0 °F 63.0 °F 90% 30.09 in - SSE 5.8 mph - N/A   Unknown
10:54 AM 66.9 °F 63.0 °F 87% 30.09 in - Calm Calm - N/A   Unknown
11:54 AM 66.9 °F 63.0 °F 87% 30.08 in - Variable 3.5 mph - N/A   Unknown
12:54 PM 66.9 °F 64.0 °F 90% 30.07 in - Variable 6.9 mph - N/A   Unknown
1:54 PM 66.9 °F 64.0 °F 90% 30.06 in - Variable 3.5 mph - N/A   Unknown
2:54 PM 68.0 °F 64.0 °F 87% 30.05 in - Variable 3.5 mph - N/A   Unknown
3:54 PM 68.0 °F 64.9 °F 90% 30.04 in - Calm Calm - N/A   Unknown
4:54 PM 68.0 °F 64.9 °F 90% 30.04 in - Calm Calm - N/A   Unknown
5:54 PM 66.9 °F 64.0 °F 90% 30.04 in - Variable 4.6 mph - N/A   Unknown
6:54 PM 66.9 °F 64.0 °F 90% 30.03 in - Calm Calm - N/A   Unknown
7:54 PM 66.9 °F 64.0 °F 90% 30.04 in - Calm Calm - N/A   Unknown
8:54 PM 66.0 °F 64.0 °F 93% 30.03 in - Calm Calm - 0.02 in   Unknown
9:54 PM 66.9 °F 64.9 °F 93% 30.03 in - Calm Calm - N/A   Unknown
10:54 PM 68.0 °F 64.9 °F 90% 30.01 in - Calm Calm - N/A   Unknown
11:54 PM 68.0 °F 64.0 °F 87% 30.00 in - Variable 4.6 mph - N/A   Unknown